Time,TemperatureF,DewpointF,PressureIn,WindDirection,WindDirectionDegrees,WindSpeedMPH,WindSpeedGustMPH,Humidity,HourlyPrecipIn,Conditions,Clouds,dailyrainin,SoftwareType,DateUTC
2013-02-01 00:00:00,4.2,-2.0,30.31,West,267,7.0,10.0,75,0.00,,,0.00,Wunderground v.1.15,2013-02-01 06:00:00,
2013-02-01 00:06:00,4.2,-1.7,30.31,West,267,7.0,10.0,76,0.00,,,0.00,Wunderground v.1.15,2013-02-01 06:06:00,
2013-02-01 00:12:00,4.2,-2.0,30.31,West,267,7.0,7.0,75,0.00,,,0.00,Wunderground v.1.15,2013-02-01 06:12:00,
2013-02-01 00:18:00,4.2,-1.7,30.31,West,267,6.0,7.0,76,0.00,,,0.00,Wunderground v.1.15,2013-02-01 06:18:00,
2013-02-01 00:25:00,4.2,-1.7,30.31,West,267,5.0,8.0,76,0.00,,,0.00,Wunderground v.1.15,2013-02-01 06:25:00,
2013-02-01 00:30:00,4.1,-2.1,30.31,West,267,6.0,7.0,75,0.00,,,0.00,Wunderground v.1.15,2013-02-01 06:30:00,
2013-02-01 00:36:00,4.0,-2.2,30.32,West,267,6.0,7.0,75,0.00,,,0.00,Wunderground v.1.15,2013-02-01 06:36:00,
2013-02-01 00:42:00,4.0,-2.2,30.32,West,267,6.0,9.0,75,0.00,,,0.00,Wunderground v.1.15,2013-02-01 06:42:00,
2013-02-01 00:48:00,4.1,-1.8,30.32,West,267,6.0,9.0,76,0.00,,,0.00,Wunderground v.1.15,2013-02-01 06:48:00,
2013-02-01 00:55:00,3.9,-2.3,30.33,West,267,7.0,7.0,75,0.00,,,0.00,Wunderground v.1.15,2013-02-01 06:55:00,
2013-02-01 01:00:00,3.9,-2.3,30.33,West,267,7.0,7.0,75,0.00,,,0.00,Wunderground v.1.15,2013-02-01 07:00:00,
2013-02-01 01:06:00,3.9,-2.3,30.33,West,267,8.0,9.0,75,0.00,,,0.00,Wunderground v.1.15,2013-02-01 07:06:00,
2013-02-01 01:12:00,3.8,-2.4,30.33,West,267,8.0,8.0,75,0.00,,,0.00,Wunderground v.1.15,2013-02-01 07:12:00,
2013-02-01 01:18:00,3.8,-2.1,30.33,West,267,7.0,9.0,76,0.00,,,0.00,Wunderground v.1.15,2013-02-01 07:18:00,
2013-02-01 01:25:00,3.7,-2.2,30.34,West,267,8.0,8.0,76,0.00,,,0.00,Wunderground v.1.15,2013-02-01 07:25:00,
2013-02-01 01:30:00,3.7,-2.5,30.34,West,267,8.0,8.0,75,0.00,,,0.00,Wunderground v.1.15,2013-02-01 07:30:00,
2013-02-01 01:36:00,3.6,-2.6,30.34,West,267,7.0,11.0,75,0.00,,,0.00,Wunderground v.1.15,2013-02-01 07:36:00,
2013-02-01 01:42:00,3.5,-2.7,30.34,West,267,7.0,10.0,75,0.00,,,0.00,Wunderground v.1.15,2013-02-01 07:42:00,
2013-02-01 01:48:00,3.5,-2.7,30.35,West,267,6.0,10.0,75,0.00,,,0.00,Wunderground v.1.15,2013-02-01 07:48:00,
2013-02-01 01:55:00,3.5,-2.7,30.35,West,267,7.0,9.0,75,0.00,,,0.00,Wunderground v.1.15,2013-02-01 07:55:00,
2013-02-01 02:00:00,3.4,-2.7,30.35,West,267,7.0,9.0,75,0.00,,,0.00,Wunderground v.1.15,2013-02-01 08:00:00,
2013-02-01 02:06:00,3.3,-2.8,30.35,West,267,6.0,9.0,75,0.00,,,0.00,Wunderground v.1.15,2013-02-01 08:06:00,
2013-02-01 02:12:00,3.3,-2.8,30.36,West,267,6.0,11.0,75,0.00,,,0.00,Wunderground v.1.15,2013-02-01 08:12:00,
2013-02-01 02:18:00,3.3,-2.6,30.36,West,267,6.0,11.0,76,0.00,,,0.00,Wunderground v.1.15,2013-02-01 08:18:00,
2013-02-01 02:25:00,3.2,-2.4,30.36,West,267,6.0,9.0,77,0.00,,,0.00,Wunderground v.1.15,2013-02-01 08:25:00,
2013-02-01 02:30:00,3.1,-2.8,30.37,West,267,6.0,6.0,76,0.00,,,0.00,Wunderground v.1.15,2013-02-01 08:30:00,
2013-02-01 02:36:00,3.1,-3.0,30.36,West,267,6.0,8.0,75,0.00,,,0.00,Wunderground v.1.15,2013-02-01 08:36:00,
2013-02-01 02:42:00,3.0,-2.9,30.37,West,267,6.0,7.0,76,0.00,,,0.00,Wunderground v.1.15,2013-02-01 08:42:00,
2013-02-01 02:48:00,3.0,-2.9,30.37,West,267,6.0,8.0,76,0.00,,,0.00,Wunderground v.1.15,2013-02-01 08:48:00,
2013-02-01 02:54:00,2.9,-3.2,30.37,West,267,7.0,9.0,75,0.00,,,0.00,Wunderground v.1.15,2013-02-01 08:54:00,
2013-02-01 03:00:00,2.9,-3.2,30.37,West,267,7.0,7.0,75,0.00,,,0.00,Wunderground v.1.15,2013-02-01 09:00:00,
2013-02-01 03:06:00,2.9,-3.0,30.38,West,267,5.0,7.0,76,0.00,,,0.00,Wunderground v.1.15,2013-02-01 09:06:00,
2013-02-01 03:12:00,2.9,-3.0,30.38,West,267,5.0,7.0,76,0.00,,,0.00,Wunderground v.1.15,2013-02-01 09:12:00,
2013-02-01 03:18:00,2.9,-3.0,30.38,West,267,6.0,11.0,76,0.00,,,0.00,Wunderground v.1.15,2013-02-01 09:18:00,
2013-02-01 03:24:00,2.8,-3.1,30.38,West,267,6.0,10.0,76,0.00,,,0.00,Wunderground v.1.15,2013-02-01 09:24:00,
2013-02-01 03:30:00,2.8,-3.1,30.38,West,267,6.0,6.0,76,0.00,,,0.00,Wunderground v.1.15,2013-02-01 09:30:00,
2013-02-01 03:36:00,2.8,-3.1,30.38,West,267,6.0,6.0,76,0.00,,,0.00,Wunderground v.1.15,2013-02-01 09:36:00,
2013-02-01 03:42:00,2.6,-3.2,30.39,West,267,6.0,6.0,76,0.00,,,0.00,Wunderground v.1.15,2013-02-01 09:42:00,
2013-02-01 03:48:00,2.6,-3.2,30.39,West,267,6.0,8.0,76,0.00,,,0.00,Wunderground v.1.15,2013-02-01 09:48:00,
2013-02-01 03:55:00,2.5,-3.3,30.39,West,267,5.0,8.0,76,0.00,,,0.00,Wunderground v.1.15,2013-02-01 09:55:00,
2013-02-01 04:00:00,2.4,-3.4,30.39,West,267,5.0,5.0,76,0.00,,,0.00,Wunderground v.1.15,2013-02-01 10:00:00,
2013-02-01 04:06:00,2.3,-3.5,30.39,West,267,6.0,7.0,76,0.00,,,0.00,Wunderground v.1.15,2013-02-01 10:06:00,
2013-02-01 04:12:00,2.3,-3.5,30.39,West,267,5.0,5.0,76,0.00,,,0.00,Wunderground v.1.15,2013-02-01 10:12:00,
2013-02-01 04:18:00,2.3,-3.5,30.39,West,267,5.0,6.0,76,0.00,,,0.00,Wunderground v.1.15,2013-02-01 10:18:00,
2013-02-01 04:25:00,2.3,-3.3,30.39,West,267,5.0,5.0,77,0.00,,,0.00,Wunderground v.1.15,2013-02-01 10:25:00,
2013-02-01 04:30:00,2.2,-3.4,30.39,West,267,5.0,6.0,77,0.00,,,0.00,Wunderground v.1.15,2013-02-01 10:30:00,
2013-02-01 04:36:00,2.2,-3.4,30.39,West,267,5.0,7.0,77,0.00,,,0.00,Wunderground v.1.15,2013-02-01 10:36:00,
2013-02-01 04:42:00,2.2,-3.4,30.39,West,267,6.0,6.0,77,0.00,,,0.00,Wunderground v.1.15,2013-02-01 10:42:00,
2013-02-01 04:48:00,2.2,-3.6,30.39,West,267,6.0,6.0,76,0.00,,,0.00,Wunderground v.1.15,2013-02-01 10:48:00,
2013-02-01 04:55:00,2.2,-3.6,30.39,West,267,6.0,7.0,76,0.00,,,0.00,Wunderground v.1.15,2013-02-01 10:55:00,
2013-02-01 05:00:00,2.1,-3.5,30.39,West,267,6.0,6.0,77,0.00,,,0.00,Wunderground v.1.15,2013-02-01 11:00:00,
2013-02-01 05:06:00,2.1,-3.5,30.39,West,267,5.0,6.0,77,0.00,,,0.00,Wunderground v.1.15,2013-02-01 11:06:00,
2013-02-01 05:12:00,2.1,-3.2,30.40,West,267,4.0,5.0,78,0.00,,,0.00,Wunderground v.1.15,2013-02-01 11:12:00,
2013-02-01 05:18:00,2.1,-3.2,30.40,West,267,4.0,5.0,78,0.00,,,0.00,Wunderground v.1.15,2013-02-01 11:18:00,
2013-02-01 05:25:00,2.1,-2.9,30.40,West,267,3.0,5.0,79,0.00,,,0.00,Wunderground v.1.15,2013-02-01 11:25:00,
2013-02-01 05:30:00,2.0,-3.3,30.40,West,267,4.0,4.0,78,0.00,,,0.00,Wunderground v.1.15,2013-02-01 11:30:00,
2013-02-01 05:36:00,2.0,-3.3,30.40,West,267,4.0,4.0,78,0.00,,,0.00,Wunderground v.1.15,2013-02-01 11:36:00,
2013-02-01 05:42:00,2.0,-3.6,30.40,West,267,5.0,5.0,77,0.00,,,0.00,Wunderground v.1.15,2013-02-01 11:42:00,
2013-02-01 05:48:00,1.9,-3.7,30.40,West,267,6.0,10.0,77,0.00,,,0.00,Wunderground v.1.15,2013-02-01 11:48:00,
2013-02-01 05:55:00,1.9,-3.7,30.40,West,267,5.0,5.0,77,0.00,,,0.00,Wunderground v.1.15,2013-02-01 11:55:00,
2013-02-01 06:00:00,1.9,-3.7,30.40,West,267,4.0,4.0,77,0.00,,,0.00,Wunderground v.1.15,2013-02-01 12:00:00,
2013-02-01 06:06:00,1.8,-3.7,30.40,West,267,5.0,7.0,77,0.00,,,0.00,Wunderground v.1.15,2013-02-01 12:06:00,
2013-02-01 06:12:00,1.8,-3.7,30.40,West,267,5.0,5.0,77,0.00,,,0.00,Wunderground v.1.15,2013-02-01 12:12:00,
2013-02-01 06:18:00,1.8,-3.7,30.41,West,267,3.0,5.0,77,0.00,,,0.00,Wunderground v.1.15,2013-02-01 12:18:00,
2013-02-01 06:25:00,1.8,-3.7,30.41,West,267,5.0,6.0,77,0.00,,,0.00,Wunderground v.1.15,2013-02-01 12:25:00,
2013-02-01 06:30:00,1.7,-3.6,30.42,West,267,4.0,5.0,78,0.00,,,0.00,Wunderground v.1.15,2013-02-01 12:30:00,
2013-02-01 06:36:00,1.7,-3.6,30.42,West,267,4.0,8.0,78,0.00,,,0.00,Wunderground v.1.15,2013-02-01 12:36:00,
2013-02-01 06:42:00,1.7,-3.8,30.42,West,267,5.0,7.0,77,0.00,,,0.00,Wunderground v.1.15,2013-02-01 12:42:00,
2013-02-01 06:48:00,1.7,-3.8,30.42,West,267,5.0,7.0,77,0.00,,,0.00,Wunderground v.1.15,2013-02-01 12:48:00,
2013-02-01 06:55:00,1.6,-3.9,30.42,West,267,5.0,6.0,77,0.00,,,0.00,Wunderground v.1.15,2013-02-01 12:55:00,
2013-02-01 07:00:00,1.6,-3.7,30.42,West,267,5.0,5.0,78,0.00,,,0.00,Wunderground v.1.15,2013-02-01 13:00:00,
2013-02-01 07:06:00,1.6,-3.9,30.43,West,267,6.0,10.0,77,0.00,,,0.00,Wunderground v.1.15,2013-02-01 13:06:00,
2013-02-01 07:12:00,1.7,-3.8,30.43,West,267,7.0,7.0,77,0.00,,,0.00,Wunderground v.1.15,2013-02-01 13:12:00,
2013-02-01 07:18:00,1.6,-4.2,30.43,West,267,5.0,9.0,76,0.00,,,0.00,Wunderground v.1.15,2013-02-01 13:18:00,
2013-02-01 07:25:00,1.7,-3.8,30.43,West,267,5.0,5.0,77,0.00,,,0.00,Wunderground v.1.15,2013-02-01 13:25:00,
2013-02-01 07:30:00,1.7,-4.1,30.43,West,267,4.0,7.0,76,0.00,,,0.00,Wunderground v.1.15,2013-02-01 13:30:00,
2013-02-01 07:36:00,1.7,-4.1,30.43,West,267,6.0,7.0,76,0.00,,,0.00,Wunderground v.1.15,2013-02-01 13:36:00,
2013-02-01 07:42:00,1.7,-4.1,30.44,West,267,6.0,6.0,76,0.00,,,0.00,Wunderground v.1.15,2013-02-01 13:42:00,
2013-02-01 07:48:00,1.7,-4.4,30.43,West,267,6.0,9.0,75,0.00,,,0.00,Wunderground v.1.15,2013-02-01 13:48:00,
2013-02-01 07:55:00,1.8,-4.3,30.44,West,267,6.0,7.0,75,0.00,,,0.00,Wunderground v.1.15,2013-02-01 13:55:00,
2013-02-01 08:00:00,1.9,-4.2,30.43,West,267,6.0,6.0,75,0.00,,,0.00,Wunderground v.1.15,2013-02-01 14:00:00,
2013-02-01 08:06:00,1.9,-4.5,30.43,West,267,6.0,10.0,74,0.00,,,0.00,Wunderground v.1.15,2013-02-01 14:06:00,
2013-02-01 08:12:00,2.0,-4.4,30.43,West,267,7.0,7.0,74,0.00,,,0.00,Wunderground v.1.15,2013-02-01 14:12:00,
2013-02-01 08:18:00,2.1,-4.3,30.43,West,267,6.0,7.0,74,0.00,,,0.00,Wunderground v.1.15,2013-02-01 14:18:00,
2013-02-01 08:25:00,2.2,-4.5,30.44,West,267,6.0,7.0,73,0.00,,,0.00,Wunderground v.1.15,2013-02-01 14:25:00,
2013-02-01 08:30:00,2.3,-4.4,30.44,West,267,6.0,7.0,73,0.00,,,0.00,Wunderground v.1.15,2013-02-01 14:30:00,
2013-02-01 08:36:00,2.5,-4.2,30.44,West,267,6.0,7.0,73,0.00,,,0.00,Wunderground v.1.15,2013-02-01 14:36:00,
2013-02-01 08:42:00,2.8,-3.9,30.45,West,267,6.0,7.0,73,0.00,,,0.00,Wunderground v.1.15,2013-02-01 14:42:00,
2013-02-01 08:48:00,3.1,-3.3,30.45,West,267,6.0,8.0,74,0.00,,,0.00,Wunderground v.1.15,2013-02-01 14:48:00,
2013-02-01 08:54:00,3.5,-3.2,30.45,West,267,6.0,9.0,73,0.00,,,0.00,Wunderground v.1.15,2013-02-01 14:54:00,
2013-02-01 09:00:00,3.5,-3.2,30.45,West,267,7.0,9.0,73,0.00,,,0.00,Wunderground v.1.15,2013-02-01 15:00:00,
2013-02-01 09:06:00,3.6,-3.1,30.46,West,267,7.0,9.0,73,0.00,,,0.00,Wunderground v.1.15,2013-02-01 15:06:00,
2013-02-01 09:12:00,4.1,-2.6,30.46,West,267,6.0,6.0,73,0.00,,,0.00,Wunderground v.1.15,2013-02-01 15:12:00,
2013-02-01 09:18:00,4.4,-2.3,30.46,West,267,6.0,6.0,73,0.00,,,0.00,Wunderground v.1.15,2013-02-01 15:18:00,
2013-02-01 09:24:00,4.6,-2.2,30.46,West,267,7.0,7.0,73,0.00,,,0.00,Wunderground v.1.15,2013-02-01 15:24:00,
2013-02-01 09:30:00,4.9,-2.2,30.46,West,267,6.0,6.0,72,0.00,,,0.00,Wunderground v.1.15,2013-02-01 15:30:00,
2013-02-01 09:36:00,5.1,-2.0,30.46,West,267,6.0,6.0,72,0.00,,,0.00,Wunderground v.1.15,2013-02-01 15:36:00,
2013-02-01 09:42:00,5.6,-1.5,30.46,West,267,5.0,6.0,72,0.00,,,0.00,Wunderground v.1.15,2013-02-01 15:42:00,
2013-02-01 09:48:00,5.9,-0.9,30.46,West,267,5.0,6.0,73,0.00,,,0.00,Wunderground v.1.15,2013-02-01 15:48:00,
2013-02-01 09:55:00,6.4,-0.7,30.46,West,267,4.0,6.0,72,0.00,,,0.00,Wunderground v.1.15,2013-02-01 15:55:00,
2013-02-01 10:00:00,6.7,-0.7,30.46,West,268,5.0,5.0,71,0.00,,,0.00,Wunderground v.1.15,2013-02-01 16:00:00,
2013-02-01 10:06:00,6.9,-0.5,30.46,West,267,5.0,8.0,71,0.00,,,0.00,Wunderground v.1.15,2013-02-01 16:06:00,
2013-02-01 10:12:00,7.0,-0.7,30.46,West,267,5.0,7.0,70,0.00,,,0.00,Wunderground v.1.15,2013-02-01 16:12:00,
2013-02-01 10:18:00,7.6,0.2,30.46,West,268,5.0,7.0,71,0.00,,,0.00,Wunderground v.1.15,2013-02-01 16:18:00,
2013-02-01 10:25:00,8.0,0.2,30.46,West,267,4.0,5.0,70,0.00,,,0.00,Wunderground v.1.15,2013-02-01 16:25:00,
2013-02-01 10:30:00,7.9,-0.5,30.46,West,268,4.0,4.0,68,0.00,,,0.00,Wunderground v.1.15,2013-02-01 16:30:00,
2013-02-01 10:36:00,8.6,0.8,30.46,West,268,4.0,8.0,70,0.00,,,0.00,Wunderground v.1.15,2013-02-01 16:36:00,
2013-02-01 10:42:00,8.6,0.2,30.46,West,267,5.0,9.0,68,0.00,,,0.00,Wunderground v.1.15,2013-02-01 16:42:00,
2013-02-01 10:48:00,9.1,1.0,30.46,West,267,5.0,9.0,69,0.00,,,0.00,Wunderground v.1.15,2013-02-01 16:48:00,
2013-02-01 10:55:00,9.2,0.8,30.46,West,267,5.0,7.0,68,0.00,,,0.00,Wunderground v.1.15,2013-02-01 16:55:00,
2013-02-01 11:00:00,9.3,1.2,30.46,West,267,5.0,6.0,69,0.00,,,0.00,Wunderground v.1.15,2013-02-01 17:00:00,
2013-02-01 11:06:00,9.6,0.8,30.46,West,267,5.0,9.0,67,0.00,,,0.00,Wunderground v.1.15,2013-02-01 17:06:00,
2013-02-01 11:12:00,9.5,0.7,30.45,West,268,5.0,6.0,67,0.00,,,0.00,Wunderground v.1.15,2013-02-01 17:12:00,
2013-02-01 11:18:00,9.5,0.7,30.45,West,267,5.0,6.0,67,0.00,,,0.00,Wunderground v.1.15,2013-02-01 17:18:00,
2013-02-01 11:24:00,10.2,1.7,30.45,West,268,4.0,8.0,68,0.00,,,0.00,Wunderground v.1.15,2013-02-01 17:24:00,
2013-02-01 11:30:00,10.3,1.5,30.45,West,267,5.0,7.0,67,0.00,,,0.00,Wunderground v.1.15,2013-02-01 17:30:00,
2013-02-01 11:36:00,10.4,1.9,30.45,West,268,6.0,7.0,68,0.00,,,0.00,Wunderground v.1.15,2013-02-01 17:36:00,
2013-02-01 11:42:00,10.3,1.5,30.45,West,267,6.0,6.0,67,0.00,,,0.00,Wunderground v.1.15,2013-02-01 17:42:00,
2013-02-01 11:48:00,10.1,1.3,30.45,West,267,6.0,9.0,67,0.00,,,0.00,Wunderground v.1.15,2013-02-01 17:48:00,
2013-02-01 11:54:00,10.6,2.1,30.45,West,267,5.0,8.0,68,0.00,,,0.00,Wunderground v.1.15,2013-02-01 17:54:00,
2013-02-01 12:00:00,10.8,2.3,30.44,West,267,5.0,6.0,68,0.00,,,0.00,Wunderground v.1.15,2013-02-01 18:00:00,
2013-02-01 12:06:00,11.1,2.3,30.44,West,267,5.0,7.0,67,0.00,,,0.00,Wunderground v.1.15,2013-02-01 18:06:00,
2013-02-01 12:12:00,10.9,1.4,30.44,West,267,7.0,7.0,65,0.00,,,0.00,Wunderground v.1.15,2013-02-01 18:12:00,
2013-02-01 12:18:00,10.8,1.7,30.44,West,267,7.0,7.0,66,0.00,,,0.00,Wunderground v.1.15,2013-02-01 18:18:00,
2013-02-01 12:24:00,11.3,2.5,30.44,West,267,6.0,7.0,67,0.00,,,0.00,Wunderground v.1.15,2013-02-01 18:24:00,
2013-02-01 12:30:00,11.4,2.6,30.44,West,267,6.0,6.0,67,0.00,,,0.00,Wunderground v.1.15,2013-02-01 18:30:00,
2013-02-01 12:36:00,11.4,2.6,30.43,West,267,6.0,6.0,67,0.00,,,0.00,Wunderground v.1.15,2013-02-01 18:36:00,
2013-02-01 12:42:00,11.8,2.9,30.43,West,267,5.0,6.0,67,0.00,,,0.00,Wunderground v.1.15,2013-02-01 18:42:00,
2013-02-01 12:48:00,12.3,3.4,30.43,West,268,5.0,6.0,67,0.00,,,0.00,Wunderground v.1.15,2013-02-01 18:48:00,
2013-02-01 12:54:00,13.0,4.1,30.42,West,268,5.0,5.0,67,0.00,,,0.00,Wunderground v.1.15,2013-02-01 18:54:00,
2013-02-01 13:00:00,13.1,4.2,30.42,West,268,5.0,9.0,67,0.00,,,0.00,Wunderground v.1.15,2013-02-01 19:00:00,
2013-02-01 13:06:00,13.1,3.9,30.42,West,268,5.0,10.0,66,0.00,,,0.00,Wunderground v.1.15,2013-02-01 19:06:00,
2013-02-01 13:12:00,13.2,4.3,30.41,West,268,5.0,8.0,67,0.00,,,0.00,Wunderground v.1.15,2013-02-01 19:12:00,
2013-02-01 13:18:00,13.5,4.2,30.41,West,268,5.0,8.0,66,0.00,,,0.00,Wunderground v.1.15,2013-02-01 19:18:00,
2013-02-01 13:24:00,13.1,3.5,30.41,West,268,6.0,7.0,65,0.00,,,0.00,Wunderground v.1.15,2013-02-01 19:24:00,
2013-02-01 13:30:00,13.2,3.6,30.40,West,268,6.0,7.0,65,0.00,,,0.00,Wunderground v.1.15,2013-02-01 19:30:00,
2013-02-01 13:36:00,13.6,4.0,30.40,West,268,5.0,10.0,65,0.00,,,0.00,Wunderground v.1.15,2013-02-01 19:36:00,
2013-02-01 13:42:00,13.5,3.6,30.40,West,268,5.0,8.0,64,0.00,,,0.00,Wunderground v.1.15,2013-02-01 19:42:00,
2013-02-01 13:48:00,13.6,4.0,30.39,West,268,5.0,8.0,65,0.00,,,0.00,Wunderground v.1.15,2013-02-01 19:48:00,
2013-02-01 13:54:00,13.9,4.3,30.39,West,268,5.0,5.0,65,0.00,,,0.00,Wunderground v.1.15,2013-02-01 19:54:00,
2013-02-01 14:00:00,14.0,4.4,30.39,West,268,5.0,5.0,65,0.00,,,0.00,Wunderground v.1.15,2013-02-01 20:00:00,
2013-02-01 14:06:00,14.2,4.6,30.39,West,268,5.0,8.0,65,0.00,,,0.00,Wunderground v.1.15,2013-02-01 20:06:00,
2013-02-01 14:12:00,14.6,5.0,30.39,West,268,5.0,5.0,65,0.00,,,0.00,Wunderground v.1.15,2013-02-01 20:12:00,
2013-02-01 14:18:00,14.9,5.2,30.38,West,268,4.0,5.0,65,0.00,,,0.00,Wunderground v.1.15,2013-02-01 20:18:00,
2013-02-01 14:25:00,15.0,5.0,30.38,West,268,5.0,7.0,64,0.00,,,0.00,Wunderground v.1.15,2013-02-01 20:25:00,
2013-02-01 14:30:00,14.7,4.7,30.38,West,268,6.0,6.0,64,0.00,,,0.00,Wunderground v.1.15,2013-02-01 20:30:00,
2013-02-01 14:36:00,14.7,4.7,30.38,West,268,6.0,8.0,64,0.00,,,0.00,Wunderground v.1.15,2013-02-01 20:36:00,
2013-02-01 14:42:00,14.8,5.2,30.38,West,268,6.0,8.0,65,0.00,,,0.00,Wunderground v.1.15,2013-02-01 20:42:00,
2013-02-01 14:48:00,14.9,4.9,30.37,West,268,6.0,8.0,64,0.00,,,0.00,Wunderground v.1.15,2013-02-01 20:48:00,
2013-02-01 14:55:00,15.4,5.4,30.37,West,268,5.0,5.0,64,0.00,,,0.00,Wunderground v.1.15,2013-02-01 20:55:00,
2013-02-01 15:00:00,15.5,5.5,30.37,West,268,5.0,9.0,64,0.00,,,0.00,Wunderground v.1.15,2013-02-01 21:00:00,
2013-02-01 15:06:00,15.6,5.6,30.37,West,268,4.0,9.0,64,0.00,,,0.00,Wunderground v.1.15,2013-02-01 21:06:00,
2013-02-01 15:12:00,15.5,5.8,30.37,West,268,6.0,7.0,65,0.00,,,0.00,Wunderground v.1.15,2013-02-01 21:12:00,
2013-02-01 15:18:00,15.4,5.7,30.38,West,268,6.0,7.0,65,0.00,,,0.00,Wunderground v.1.15,2013-02-01 21:18:00,
2013-02-01 15:24:00,15.5,5.5,30.37,West,268,5.0,5.0,64,0.00,,,0.00,Wunderground v.1.15,2013-02-01 21:24:00,
2013-02-01 15:30:00,15.7,6.0,30.37,West,267,4.0,4.0,65,0.00,,,0.00,Wunderground v.1.15,2013-02-01 21:30:00,
2013-02-01 15:36:00,15.7,5.7,30.37,West,267,5.0,9.0,64,0.00,,,0.00,Wunderground v.1.15,2013-02-01 21:36:00,
2013-02-01 15:42:00,15.3,4.9,30.37,West,267,7.0,10.0,63,0.00,,,0.00,Wunderground v.1.15,2013-02-01 21:42:00,
2013-02-01 15:48:00,15.0,5.3,30.36,West,267,6.0,10.0,65,0.00,,,0.00,Wunderground v.1.15,2013-02-01 21:48:00,
2013-02-01 15:55:00,15.0,5.7,30.36,West,267,5.0,6.0,66,0.00,,,0.00,Wunderground v.1.15,2013-02-01 21:55:00,
2013-02-01 16:00:00,15.2,5.9,30.36,West,267,4.0,7.0,66,0.00,,,0.00,Wunderground v.1.15,2013-02-01 22:00:00,
2013-02-01 16:06:00,15.3,6.0,30.36,West,267,4.0,7.0,66,0.00,,,0.00,Wunderground v.1.15,2013-02-01 22:06:00,
2013-02-01 16:12:00,15.5,6.2,30.36,West,267,4.0,5.0,66,0.00,,,0.00,Wunderground v.1.15,2013-02-01 22:12:00,
2013-02-01 16:18:00,15.5,5.8,30.36,West,267,5.0,6.0,65,0.00,,,0.00,Wunderground v.1.15,2013-02-01 22:18:00,
2013-02-01 16:24:00,15.4,6.1,30.36,West,267,4.0,6.0,66,0.00,,,0.00,Wunderground v.1.15,2013-02-01 22:24:00,
2013-02-01 16:30:00,15.3,6.3,30.36,West,267,4.0,4.0,67,0.00,,,0.00,Wunderground v.1.15,2013-02-01 22:30:00,
2013-02-01 16:36:00,15.3,6.3,30.36,West,267,4.0,7.0,67,0.00,,,0.00,Wunderground v.1.15,2013-02-01 22:36:00,
2013-02-01 16:42:00,15.3,6.3,30.36,West,267,6.0,8.0,67,0.00,,,0.00,Wunderground v.1.15,2013-02-01 22:42:00,
2013-02-01 16:48:00,15.2,6.5,30.36,West,267,6.0,8.0,68,0.00,,,0.00,Wunderground v.1.15,2013-02-01 22:48:00,
2013-02-01 16:54:00,15.2,6.5,30.36,West,267,5.0,7.0,68,0.00,,,0.00,Wunderground v.1.15,2013-02-01 22:54:00,
2013-02-01 17:00:00,15.2,6.5,30.35,West,267,5.0,5.0,68,0.00,,,0.00,Wunderground v.1.15,2013-02-01 23:00:00,
2013-02-01 17:06:00,15.3,6.9,30.35,West,267,3.0,6.0,69,0.00,,,0.00,Wunderground v.1.15,2013-02-01 23:06:00,
2013-02-01 17:12:00,15.2,6.5,30.35,West,267,4.0,4.0,68,0.00,,,0.00,Wunderground v.1.15,2013-02-01 23:12:00,
2013-02-01 17:18:00,15.2,6.5,30.35,West,267,4.0,7.0,68,0.00,,,0.00,Wunderground v.1.15,2013-02-01 23:18:00,
2013-02-01 17:25:00,15.2,6.8,30.34,West,267,3.0,6.0,69,0.00,,,0.00,Wunderground v.1.15,2013-02-01 23:25:00,
2013-02-01 17:30:00,15.3,6.9,30.34,West,267,2.0,2.0,69,0.00,,,0.00,Wunderground v.1.15,2013-02-01 23:30:00,
2013-02-01 17:36:00,15.4,7.0,30.34,West,267,2.0,7.0,69,0.00,,,0.00,Wunderground v.1.15,2013-02-01 23:36:00,
2013-02-01 17:42:00,15.4,7.0,30.34,West,267,3.0,3.0,69,0.00,,,0.00,Wunderground v.1.15,2013-02-01 23:42:00,
2013-02-01 17:48:00,15.5,7.5,30.34,West,267,2.0,3.0,70,0.00,,,0.00,Wunderground v.1.15,2013-02-01 23:48:00,
2013-02-01 17:54:00,15.7,7.6,30.34,West,267,3.0,6.0,70,0.00,,,0.00,Wunderground v.1.15,2013-02-01 23:54:00,
2013-02-01 18:00:00,15.8,7.7,30.33,West,267,4.0,5.0,70,0.00,,,0.00,Wunderground v.1.15,2013-02-02 00:00:00,
2013-02-01 18:06:00,15.8,7.7,30.33,West,267,3.0,5.0,70,0.00,,,0.00,Wunderground v.1.15,2013-02-02 00:06:00,
2013-02-01 18:12:00,15.9,7.8,30.33,West,268,4.0,4.0,70,0.00,,,0.00,Wunderground v.1.15,2013-02-02 00:12:00,
2013-02-01 18:18:00,15.9,7.8,30.33,West,267,4.0,5.0,70,0.00,,,0.00,Wunderground v.1.15,2013-02-02 00:18:00,
2013-02-01 18:25:00,16.0,8.3,30.33,West,267,4.0,6.0,71,0.00,,,0.00,Wunderground v.1.15,2013-02-02 00:25:00,
2013-02-01 18:30:00,16.1,8.3,30.33,West,267,3.0,5.0,71,0.00,,,0.00,Wunderground v.1.15,2013-02-02 00:30:00,
2013-02-01 18:36:00,16.2,8.8,30.33,West,267,3.0,7.0,72,0.00,,,0.00,Wunderground v.1.15,2013-02-02 00:36:00,
2013-02-01 18:42:00,16.3,8.9,30.33,West,267,3.0,4.0,72,0.00,,,0.00,Wunderground v.1.15,2013-02-02 00:42:00,
2013-02-01 18:48:00,16.4,8.9,30.33,West,267,4.0,4.0,72,0.00,,,0.00,Wunderground v.1.15,2013-02-02 00:48:00,
2013-02-01 18:55:00,16.6,9.1,30.33,West,267,3.0,4.0,72,0.00,,,0.00,Wunderground v.1.15,2013-02-02 00:55:00,
2013-02-01 19:00:00,16.7,9.2,30.33,West,267,3.0,3.0,72,0.00,,,0.00,Wunderground v.1.15,2013-02-02 01:00:00,
2013-02-01 19:06:00,16.8,9.6,30.32,West,267,4.0,5.0,73,0.00,,,0.00,Wunderground v.1.15,2013-02-02 01:06:00,
2013-02-01 19:12:00,16.9,9.7,30.31,West,267,2.0,3.0,73,0.00,,,0.00,Wunderground v.1.15,2013-02-02 01:12:00,
2013-02-01 19:18:00,17.1,9.6,30.31,West,267,3.0,5.0,72,0.00,,,0.00,Wunderground v.1.15,2013-02-02 01:18:00,
2013-02-01 19:24:00,17.2,9.7,30.31,West,267,3.0,5.0,72,0.00,,,0.00,Wunderground v.1.15,2013-02-02 01:24:00,
2013-02-01 19:30:00,17.3,9.5,30.30,West,267,3.0,5.0,71,0.00,,,0.00,Wunderground v.1.15,2013-02-02 01:30:00,
2013-02-01 19:36:00,17.4,9.6,30.30,West,267,4.0,5.0,71,0.00,,,0.00,Wunderground v.1.15,2013-02-02 01:36:00,
2013-02-01 19:42:00,17.5,9.4,30.30,West,267,4.0,4.0,70,0.00,,,0.00,Wunderground v.1.15,2013-02-02 01:42:00,
2013-02-01 19:48:00,17.5,9.4,30.29,West,267,4.0,5.0,70,0.00,,,0.00,Wunderground v.1.15,2013-02-02 01:48:00,
2013-02-01 19:54:00,17.5,9.4,30.29,West,267,4.0,5.0,70,0.00,,,0.00,Wunderground v.1.15,2013-02-02 01:54:00,
2013-02-01 20:00:00,17.5,9.4,30.29,West,267,3.0,4.0,70,0.00,,,0.00,Wunderground v.1.15,2013-02-02 02:00:00,
2013-02-01 20:06:00,17.6,9.8,30.29,West,267,3.0,6.0,71,0.00,,,0.00,Wunderground v.1.15,2013-02-02 02:06:00,
2013-02-01 20:12:00,17.7,9.9,30.28,West,267,4.0,6.0,71,0.00,,,0.00,Wunderground v.1.15,2013-02-02 02:12:00,
2013-02-01 20:18:00,17.8,9.7,30.28,West,267,4.0,7.0,70,0.00,,,0.00,Wunderground v.1.15,2013-02-02 02:18:00,
2013-02-01 20:25:00,17.9,9.8,30.27,West,267,4.0,8.0,70,0.00,,,0.00,Wunderground v.1.15,2013-02-02 02:25:00,
2013-02-01 20:30:00,17.9,9.8,30.27,West,267,4.0,5.0,70,0.00,,,0.00,Wunderground v.1.15,2013-02-02 02:30:00,
2013-02-01 20:36:00,17.9,9.4,30.27,West,267,4.0,5.0,69,0.00,,,0.00,Wunderground v.1.15,2013-02-02 02:36:00,
2013-02-01 20:42:00,18.0,9.9,30.27,West,267,4.0,4.0,70,0.00,,,0.00,Wunderground v.1.15,2013-02-02 02:42:00,
2013-02-01 20:48:00,18.0,10.5,30.27,West,267,3.0,4.0,72,0.00,,,0.00,Wunderground v.1.15,2013-02-02 02:48:00,
2013-02-01 20:55:00,18.0,10.5,30.27,West,267,4.0,5.0,72,0.00,,,0.00,Wunderground v.1.15,2013-02-02 02:55:00,
2013-02-01 21:00:00,18.1,10.6,30.27,West,267,3.0,8.0,72,0.00,,,0.00,Wunderground v.1.15,2013-02-02 03:00:00,
2013-02-01 21:06:00,18.1,10.9,30.27,West,267,4.0,8.0,73,0.00,,,0.00,Wunderground v.1.15,2013-02-02 03:06:00,
2013-02-01 21:12:00,18.0,11.7,30.27,West,267,4.0,9.0,76,0.00,,,0.00,Wunderground v.1.15,2013-02-02 03:12:00,
2013-02-01 21:18:00,17.9,11.9,30.27,West,267,3.0,9.0,77,0.00,,,0.00,Wunderground v.1.15,2013-02-02 03:18:00,
2013-02-01 21:25:00,17.8,12.1,30.27,West,268,2.0,6.0,78,0.00,,,0.00,Wunderground v.1.15,2013-02-02 03:25:00,
2013-02-01 21:30:00,17.8,11.8,30.26,West,267,3.0,3.0,77,0.00,,,0.00,Wunderground v.1.15,2013-02-02 03:30:00,
2013-02-01 21:36:00,17.9,11.9,30.26,West,267,2.0,6.0,77,0.00,,,0.00,Wunderground v.1.15,2013-02-02 03:36:00,
2013-02-01 21:42:00,18.0,12.0,30.26,West,267,2.0,2.0,77,0.00,,,0.00,Wunderground v.1.15,2013-02-02 03:42:00,
2013-02-01 21:48:00,18.1,12.1,30.26,West,267,1.0,2.0,77,0.00,,,0.00,Wunderground v.1.15,2013-02-02 03:48:00,
2013-02-01 21:55:00,18.1,12.1,30.25,West,267,1.0,2.0,77,0.00,,,0.00,Wunderground v.1.15,2013-02-02 03:55:00,
2013-02-01 22:00:00,18.3,12.3,30.25,West,267,1.0,1.0,77,0.00,,,0.00,Wunderground v.1.15,2013-02-02 04:00:00,
2013-02-01 22:06:00,18.4,12.1,30.25,West,267,1.0,4.0,76,0.00,,,0.00,Wunderground v.1.15,2013-02-02 04:06:00,
2013-02-01 22:12:00,18.6,12.3,30.25,West,267,1.0,1.0,76,0.00,,,0.00,Wunderground v.1.15,2013-02-02 04:12:00,
2013-02-01 22:18:00,18.8,12.2,30.25,West,267,1.0,2.0,75,0.00,,,0.00,Wunderground v.1.15,2013-02-02 04:18:00,
2013-02-01 22:24:00,18.9,12.3,30.25,West,267,1.0,1.0,75,0.00,,,0.00,Wunderground v.1.15,2013-02-02 04:24:00,
2013-02-01 22:30:00,19.1,12.2,30.24,West,267,1.0,2.0,74,0.00,,,0.00,Wunderground v.1.15,2013-02-02 04:30:00,
2013-02-01 22:36:00,19.3,12.4,30.24,West,267,1.0,2.0,74,0.00,,,0.00,Wunderground v.1.15,2013-02-02 04:36:00,
2013-02-01 22:42:00,19.4,12.2,30.24,West,267,2.0,5.0,73,0.00,,,0.00,Wunderground v.1.15,2013-02-02 04:42:00,
2013-02-01 22:48:00,19.5,12.3,30.24,West,267,2.0,5.0,73,0.00,,,0.00,Wunderground v.1.15,2013-02-02 04:48:00,
2013-02-01 22:55:00,19.6,12.3,30.24,West,267,2.0,2.0,73,0.00,,,0.00,Wunderground v.1.15,2013-02-02 04:55:00,
2013-02-01 23:00:00,19.7,12.8,30.24,West,267,1.0,1.0,74,0.00,,,0.00,Wunderground v.1.15,2013-02-02 05:00:00,
2013-02-01 23:06:00,19.8,13.2,30.24,West,267,1.0,1.0,75,0.00,,,0.00,Wunderground v.1.15,2013-02-02 05:06:00,
2013-02-01 23:08:00,19.8,13.2,30.24,West,267,1.0,1.0,75,0.00,,,0.00,Wunderground v.1.15,2013-02-02 05:08:00,
2013-02-01 23:15:00,19.8,13.5,30.24,West,267,1.0,3.0,76,0.00,,,0.00,Wunderground v.1.15,2013-02-02 05:15:00,
2013-02-01 23:20:00,19.6,13.9,30.24,West,267,2.0,2.0,78,0.00,,,0.00,Wunderground v.1.15,2013-02-02 05:20:00,
2013-02-01 23:26:00,19.5,14.6,30.24,West,267,3.0,6.0,81,0.00,,,0.00,Wunderground v.1.15,2013-02-02 05:26:00,
2013-02-01 23:32:00,19.3,15.0,30.24,West,267,3.0,3.0,83,0.00,,,0.00,Wunderground v.1.15,2013-02-02 05:32:00,
2013-02-01 23:38:00,19.1,15.3,30.24,West,267,3.0,6.0,85,0.00,,,0.00,Wunderground v.1.15,2013-02-02 05:38:00,
2013-02-01 23:44:00,19.0,15.5,30.24,West,267,3.0,3.0,86,0.00,,,0.00,Wunderground v.1.15,2013-02-02 05:44:00,
2013-02-01 23:50:00,19.0,15.8,30.23,West,267,2.0,2.0,87,0.00,,,0.00,Wunderground v.1.15,2013-02-02 05:50:00,
2013-02-01 23:56:00,19.0,16.0,30.23,West,267,2.0,2.0,88,0.00,,,0.00,Wunderground v.1.15,2013-02-02 05:56:00,